Вернуться в каталог

BEIDOU 3M17

АктивенНавигацияMEO
NORAD 43706·PAYLOAD·🇨🇳 China

Запущен Nov 18, 2018 с Xichang Satellite Launch Center

Loading…

Ближайшие Пролёты (ближайшие 24 часа)

TLE

СвежийSource: CelesTrak SupGP

Эпоха: Sep 12, 2026, 00:00 UTC

1 43706C 18093A   26255.00000000  .00000000  00000+0  00000+0 0  2554
2 43706  54.1661 179.3534 0008423 303.7037 216.8212  1.86228480    19

Отслеживайте BEIDOU 3M17 в реальном времени с AllMySat

Download on the App Store